TimeCST,TemperatureF,Dew PointF,Humidity,Sea Level PressureIn,VisibilityMPH,Wind Direction,Wind SpeedMPH,Gust SpeedMPH,PrecipitationIn,Events,Conditions,WindDirDegrees,DateUTC
12:53 AM,46.9,36.0,66,30.17,10.0,NW,6.9,-,N/A,,Clear,310,2012-11-23 06:53:00
1:53 AM,45.0,36.0,71,30.19,10.0,NW,9.2,-,N/A,,Clear,310,2012-11-23 07:53:00
2:53 AM,42.1,33.1,70,30.20,10.0,NW,6.9,-,N/A,,Clear,320,2012-11-23 08:53:00
3:53 AM,39.9,32.0,73,30.21,10.0,WNW,6.9,-,N/A,,Clear,300,2012-11-23 09:53:00
4:53 AM,37.9,32.0,79,30.22,10.0,West,8.1,-,N/A,,Clear,270,2012-11-23 10:53:00
5:53 AM,37.0,32.0,82,30.21,10.0,West,9.2,-,N/A,,Clear,260,2012-11-23 11:53:00
6:53 AM,39.0,32.0,76,30.23,10.0,WNW,11.5,-,N/A,,Clear,290,2012-11-23 12:53:00
7:53 AM,39.9,30.0,68,30.26,10.0,WNW,15.0,21.9,N/A,,Partly Cloudy,300,2012-11-23 13:53:00
8:53 AM,39.9,28.0,63,30.29,10.0,NW,17.3,24.2,N/A,,Overcast,320,2012-11-23 14:53:00
9:53 AM,39.0,27.0,62,30.32,10.0,NW,12.7,23.0,N/A,,Overcast,310,2012-11-23 15:53:00
10:53 AM,39.9,27.0,60,30.33,10.0,NW,17.3,21.9,N/A,,Mostly Cloudy,310,2012-11-23 16:53:00
11:53 AM,39.9,21.9,49,30.32,10.0,WNW,19.6,26.5,N/A,,Clear,290,2012-11-23 17:53:00
12:53 PM,39.9,21.9,49,30.32,10.0,NW,16.1,24.2,N/A,,Clear,310,2012-11-23 18:53:00
1:53 PM,39.9,21.9,49,30.32,10.0,West,19.6,24.2,N/A,,Clear,280,2012-11-23 19:53:00
2:53 PM,39.9,19.0,43,30.33,10.0,WNW,18.4,21.9,N/A,,Clear,290,2012-11-23 20:53:00
3:53 PM,37.9,17.1,43,30.34,10.0,NW,16.1,-,N/A,,Clear,310,2012-11-23 21:53:00
4:53 PM,36.0,17.1,46,30.35,10.0,WNW,10.4,19.6,N/A,,Clear,290,2012-11-23 22:53:00
5:53 PM,34.0,17.1,50,30.36,10.0,WNW,9.2,-,N/A,,Clear,300,2012-11-23 23:53:00
6:53 PM,32.0,16.0,52,30.37,10.0,NW,9.2,-,N/A,,Clear,310,2012-11-24 00:53:00
7:53 PM,32.0,16.0,52,30.38,10.0,NW,11.5,-,N/A,,Clear,310,2012-11-24 01:53:00
8:53 PM,30.0,16.0,56,30.38,10.0,NW,8.1,-,N/A,,Clear,310,2012-11-24 02:53:00
9:53 PM,28.9,16.0,58,30.38,10.0,NW,9.2,-,N/A,,Clear,320,2012-11-24 03:53:00
10:53 PM,27.0,16.0,63,30.38,10.0,NW,6.9,-,N/A,,Clear,320,2012-11-24 04:53:00
11:53 PM,26.6,15.8,64,30.34,10.0,NW,8.1,-,N/A,,Clear,310,2012-11-24 05:53:00